Weather History for Eagle Creek, IN

Change the Weather History Date:

Tuesday, January 21, 2014

  Actual Average Record
Temperature  
Mean Temperature 16 °F 28 °F  
Max Temperature 31 °F 35 °F 57 °F (2006)
Min Temperature 1 °F 21 °F -4 °F (2000)
Degree Days  
Heating Degree Days 49 37  
Month to date heating degree days 873 777  
Since 1 July heating degree days 3127 2833  
Cooling Degree Days 0 0  
Month to date cooling degree days 0 0  
Year to date cooling degree days 0 0  
Moisture  
Dew Point 9 °F    
Average Humidity 68    
Maximum Humidity 88    
Minimum Humidity 48    
Precipitation  
Precipitation 0.02 in 0.04 in 0.87 in (1993)
Month to date precipitation 1.82 1.85  
Year to date precipitation 1.82 1.85  
Sea Level Pressure  
Sea Level Pressure 30.03 in    
Wind  
Wind Speed 13 mph (North)    
Max Wind Speed 29 mph    
Max Gust Speed 36 mph    
Visibility 5 miles    
Events Fog , Snow    
T = Trace of Precipitation, MM = Missing Value Source: NWS Daily Summary

Daily Weather History Graph

Daily Weather History Graph

Search for Another Location

Airport:

Trip Planner

Search our weather history database for the weather conditions in past years. The results will help you decide how hot, cold, wet, or windy it might be!

Date:

Astronomy

Jan. 21, 2014 Rise Set
Actual Time 8:01 AM EST 5:51 PM EST
Civil Twilight 7:32 AM EST 6:21 PM EST
Nautical Twilight 6:59 AM EST 6:53 PM EST
Astronomical Twilight 6:27 AM EST 7:26 PM EST
Moon 11:23 PM EST (1/21) 10:31 AM EST (1/21)
Length of Visible Light 10h 48m
Length of Day
9h 50m
Waning Gibbous, 75% of the Moon is Illuminated
Jan 21
Waning Gibbous
Jan 24
Last Quarter
Jan 30
New
Feb 6
First Quarter
Feb 14
Full

Hourly Weather History & Observations

Time (EST) Temp. Windchill Dew Point Humidity Pressure Visibility Wind Dir Wind Speed Gust Speed Precip Events Conditions
12:41 AM 30.0 °F 25.2 °F 26.1 °F 85% 29.84 in 7.0 mi NNW 4.6 mph - N/A   Overcast
12:53 AM 30.0 °F 25.2 °F 26.1 °F 85% 29.86 in 7.0 mi NNW 4.6 mph - N/A   Overcast
1:19 AM 30.0 °F 24.1 °F 26.1 °F 85% 29.84 in 6.0 mi NNW 5.8 mph - N/A   Overcast
1:42 AM 30.0 °F 24.1 °F 27.0 °F 88% 29.82 in 2.0 mi North 5.8 mph - 0.00 in Snow Light Snow
1:53 AM 30.0 °F 25.2 °F 27.0 °F 88% 29.84 in 2.0 mi North 4.6 mph - 0.00 in Snow Light Snow
2:25 AM 28.9 °F 18.2 °F 26.1 °F 89% 29.83 in 1.5 mi NNE 13.8 mph 17.3 mph 0.00 in Snow Light Snow
2:53 AM 26.1 °F 14.5 °F 23.0 °F 88% 29.87 in 0.8 mi North 13.8 mph 21.9 mph 0.00 in Snow Light Snow
3:09 AM 25.0 °F 13.6 °F 21.9 °F 88% 29.85 in 1.0 mi NNE 12.7 mph 24.2 mph 0.01 in Snow Light Snow
3:21 AM 24.1 °F 11.0 °F 21.0 °F 88% 29.86 in 0.8 mi NNE 16.1 mph 26.5 mph 0.01 in Snow Light Snow
3:36 AM 23.0 °F 10.1 °F 19.9 °F 88% 29.86 in 0.5 mi NNE 15.0 mph 20.7 mph 0.01 in Fog , Snow Snow
3:44 AM 23.0 °F 12.4 °F 19.9 °F 88% 29.86 in 0.5 mi NNE 10.4 mph 23.0 mph 0.01 in Fog , Snow Snow
3:51 AM 23.0 °F 10.1 °F 19.4 °F 86% 29.86 in 0.8 mi NNE 15.0 mph 24.2 mph 0.01 in Snow Light Snow
3:53 AM 23.0 °F 10.6 °F 19.0 °F 85% 29.89 in 0.8 mi NNE 13.8 mph 24.2 mph 0.01 in Snow Light Snow
4:03 AM 21.9 °F 10.4 °F 19.0 °F 89% 29.87 in 0.8 mi NNE 11.5 mph 25.3 mph 0.00 in Snow Light Snow
4:17 AM 21.9 °F 7.8 °F 18.0 °F 85% 29.87 in 1.0 mi NNE 17.3 mph 29.9 mph 0.01 in Snow Light Snow
4:32 AM 21.0 °F 8.6 °F 18.0 °F 88% 29.88 in 0.8 mi NNE 12.7 mph 21.9 mph 0.01 in Snow Light Snow
4:43 AM 19.0 °F 2.4 °F 15.1 °F 85% 29.89 in 0.8 mi NNE 21.9 mph 33.4 mph 0.01 in Snow Light Snow
4:50 AM 19.4 °F 3.2 °F 14.0 °F 80% 29.90 in 1.0 mi NNE 20.7 mph 29.9 mph 0.01 in Snow Light Snow
4:53 AM 18.0 °F 2.2 °F 14.0 °F 84% 29.93 in 1.2 mi NNE 18.4 mph 29.9 mph 0.01 in Snow Light Snow
4:56 AM 18.0 °F 2.2 °F 12.9 °F 81% 29.90 in 1.2 mi NNE 18.4 mph 29.9 mph 0.00 in Snow Light Snow
5:37 AM 16.0 °F -0.9 °F 12.0 °F 84% 29.94 in 0.8 mi NNE 19.6 mph 28.8 mph 0.00 in Snow Light Snow
5:53 AM 14.0 °F -4.3 °F 9.0 °F 80% 29.99 in 0.8 mi North 21.9 mph 33.4 mph 0.00 in Snow Light Snow
5:59 AM 14.0 °F -3.0 °F 9.0 °F 80% 29.96 in 1.0 mi NNE 18.4 mph 31.1 mph 0.00 in Snow Light Snow
6:53 AM 12.0 °F -6.5 °F 7.0 °F 80% 30.04 in 1.2 mi North 20.7 mph 35.7 mph 0.00 in Snow Light Snow
7:24 AM 10.9 °F -8.3 °F 6.1 °F 81% 30.03 in 1.0 mi North 21.9 mph 31.1 mph 0.00 in Snow Light Snow
7:35 AM 10.9 °F -9.2 °F 5.0 °F 77% 30.04 in 1.8 mi North 24.2 mph 33.4 mph 0.00 in Snow Light Snow
7:53 AM 10.9 °F -7.5 °F 5.0 °F 77% 30.10 in 2.5 mi North 19.6 mph - 0.00 in Snow Light Snow
7:58 AM 10.9 °F -7.5 °F 3.9 °F 73% 30.06 in 3.0 mi North 19.6 mph 29.9 mph 0.00 in Snow Light Snow
8:17 AM 10.0 °F -7.1 °F 3.9 °F 76% 30.07 in 2.5 mi North 16.1 mph - 0.00 in Snow Light Snow
8:26 AM 10.0 °F -5.9 °F 5.0 °F 80% 30.07 in 1.2 mi North 13.8 mph - 0.00 in Snow Light Snow
8:34 AM 10.0 °F -8.1 °F 3.9 °F 76% 30.08 in 3.0 mi North 18.4 mph 25.3 mph 0.00 in Snow Light Snow
8:53 AM 9.0 °F -10.0 °F 1.9 °F 73% 30.13 in 6.0 mi North 19.6 mph 28.8 mph 0.00 in Snow Blowing Snow
9:53 AM 10.0 °F -9.1 °F -0.9 °F 61% 30.17 in 9.0 mi North 20.7 mph 28.8 mph N/A   Clear
10:53 AM 12.0 °F -3.4 °F -2.0 °F 53% 30.19 in 10.0 mi NNE 13.8 mph 23.0 mph 0.00 in   Clear
11:53 AM 12.0 °F -4.0 °F -4.0 °F 49% 30.20 in 10.0 mi NNE 15.0 mph 27.6 mph 0.00 in   Clear
12:53 PM 12.0 °F -6.5 °F -4.0 °F 49% 30.19 in 10.0 mi North 20.7 mph 26.5 mph N/A   Clear
1:53 PM 12.9 °F -2.2 °F -2.9 °F 49% 30.19 in 10.0 mi North 13.8 mph - N/A   Clear
2:53 PM 12.9 °F -2.2 °F -2.9 °F 49% 30.20 in 10.0 mi NNW 13.8 mph - N/A   Clear
3:53 PM 12.0 °F -2.0 °F -2.9 °F 51% 30.21 in 10.0 mi NNW 11.5 mph - N/A   Clear
4:53 PM 12.0 °F -1.3 °F -4.0 °F 49% 30.23 in 10.0 mi North 10.4 mph - N/A   Clear
5:53 PM 10.0 °F -0.9 °F -4.0 °F 53% 30.25 in 10.0 mi North 6.9 mph - N/A   Clear
6:53 PM 9.0 °F - -4.0 °F 56% 30.25 in 10.0 mi Calm Calm - N/A   Clear
7:51 PM 6.8 °F -0.1 °F -2.2 °F 67% 30.21 in 10.0 mi WNW 3.5 mph - N/A   Mostly Cloudy
7:53 PM 6.1 °F -0.9 °F -2.9 °F 67% 30.26 in 10.0 mi NW 3.5 mph - N/A   Mostly Cloudy
8:53 PM 7.0 °F -5.7 °F 1.0 °F 77% 30.25 in 10.0 mi WNW 8.1 mph - N/A   Scattered Clouds
9:53 PM 5.0 °F -4.1 °F -0.0 °F 80% 30.25 in 10.0 mi WNW 4.6 mph - N/A   Clear
10:53 PM 3.0 °F -4.4 °F -2.0 °F 80% 30.25 in 10.0 mi WNW 3.5 mph - N/A   Clear
11:53 PM 1.9 °F -5.6 °F -2.0 °F 83% 30.25 in 10.0 mi WNW 3.5 mph - N/A   Clear